sat.trackr.live / text

‹ back to catalog

HAWK-8C

NORAD 59449 · 2024-066H

PAYLOAD ACTIVE UNKNOWN

§ Identity

Operator
Country
US
Launch date
2024-04-07
Launch site
AFETR
Launch vehicle
Mass (kg)
RCS (m²)

External: N2YO · Heavens-Above · Gunter

§ Orbital elements

Epoch: 2026-09-21T23:49:50.244096Z

Period
96.04 min
Inclination
45.6062°
Eccentricity
0.0002975
Mean motion
14.99428821 rev/d
Perigee alt
566.6 km
Apogee alt
570.7 km
Semi-major
6,946.8 km
B*
8.1239e-5
RAAN
137.0843°
Arg perigee
230.3334°
Mean anomaly
129.7285°
Rev number
13,435

§ Raw data

HAWK-8C1 59449U 24066H   26264.99294264  .00000779  00000+0  81239-4 0  99932 59449  45.6062 137.0843 0002975 230.3334 129.7285 14.99428821134351

JSON: /api/v1/satellites/59449 · /tle

For live sub-satellite position, see the globe view (requires WebGL).

§ Visibility from observer

Set your observer location to see the next 7 days of passes ≥ 10°. The values pass through the URL so the page stays shareable.

No JS? Fill the form by hand. The geolocation button needs JavaScript.